Simultaneous Nadir Overpasses (SNOs) Predictions

Prediction of SNOs between GOES-16 and FY3D Satellite Orbit:

Table of predicted SNOs for the next 14.0 days since TLE Epoch: 2/10/2024
Index Date Time (GOES-16) GOES-16 Lat,Lon FY3D Lat,Lon Distance(km) Time Diff (sec)
1 02/11/2024 07:24:51 -0.06, -75.21 -0.01, -75.41 23.58 80
2 02/12/2024 07:03:42 -0.06, -75.22 -1.04, -70.94 488.01 80
3 02/13/2024 19:26:03 0.06, -75.23 -0.15, -76.31 122.10 80
4 02/14/2024 19:10:13 0.06, -75.24 0.83, -71.82 390.09 80
5 02/16/2024 07:32:25 -0.06, -75.26 0.35, -77.16 216.19 80
6 02/17/2024 07:11:16 -0.06, -75.27 -0.63, -72.67 296.05 80
7 02/18/2024 19:33:35 0.05, -75.29 -0.59, -78.04 313.36 80
8 02/19/2024 19:17:47 0.05, -75.31 0.45, -73.56 199.44 80
9 02/21/2024 07:39:58 -0.03, -75.34 0.77, -78.89 405.38 80
10 02/22/2024 07:18:49 -0.03, -75.36 -0.22, -74.40 107.80 80
